Tracking 25703 objects as of 2-Jul-2022
HD Live streaming from Space Station
objects crossing your sky now

NOAA 16 DEB

Track NOAA 16 DEB now!
10-day predictions


NORAD ID: 42346
Int'l Code: 2000-055QN
Perigee: 733.9 km
Apogee: 814.3 km
Inclination: 99.0 °
Period: 100.2 minutes
Semi major axis: 7145 km
RCS: Unknown
Launch date: September 21, 2000
Source: United States (US)
Launch site: AIR FORCE WESTERN TEST RANGE (AFWTR)

Note: This is SATELLITE DEBRIS
aabbcc
Your satellite tracking list
Your tracking list is empty




NASA's NSSDC Master Catalog

Two Line Element Set (TLE):
1 42346U 00055QN  22182.50912897  .00003348  00000-0  11149-2 0  9991
2 42346  99.0428  21.0019 0056243 307.9686  51.6425 14.37441361334709
Source of the keplerian elements: AFSPC